Time,TemperatureF,DewpointF,PressureIn,WindDirection,WindDirectionDegrees,WindSpeedMPH,WindSpeedGustMPH,Humidity,HourlyPrecipIn,Conditions,Clouds,dailyrainin,SoftwareType,DateUTC
2013-07-15 00:01:00,65.2,64.0,30.10,NE,47,0.0,0.0,94,0.00,,,0.00,weatherlink.com 1.10,2013-07-15 04:01:00,
2013-07-15 00:16:00,64.8,63.0,30.09,NE,47,0.0,2.0,94,0.00,,,0.00,weatherlink.com 1.10,2013-07-15 04:16:00,
2013-07-15 00:32:00,64.7,63.0,30.09,NE,47,0.0,1.0,95,0.00,,,0.00,weatherlink.com 1.10,2013-07-15 04:32:00,
2013-07-15 00:47:00,64.7,63.0,30.09,NE,47,0.0,0.0,95,0.00,,,0.00,weatherlink.com 1.10,2013-07-15 04:47:00,
2013-07-15 01:02:00,64.7,63.0,30.09,NE,47,0.0,0.0,95,0.00,,,0.00,weatherlink.com 1.10,2013-07-15 05:02:00,
2013-07-15 01:17:00,64.6,63.0,30.09,NE,47,0.0,1.0,95,0.00,,,0.00,weatherlink.com 1.10,2013-07-15 05:17:00,
2013-07-15 01:32:00,64.2,63.0,30.08,NE,47,0.0,0.0,96,0.00,,,0.00,weatherlink.com 1.10,2013-07-15 05:32:00,
2013-07-15 01:47:00,63.9,63.0,30.08,NE,47,0.0,1.0,96,0.00,,,0.00,weatherlink.com 1.10,2013-07-15 05:47:00,
2013-07-15 02:02:00,63.5,62.0,30.07,NE,47,0.0,1.0,96,0.00,,,0.00,weatherlink.com 1.10,2013-07-15 06:02:00,
2013-07-15 02:17:00,63.3,62.0,30.08,NE,47,0.0,0.0,96,0.00,,,0.00,weatherlink.com 1.10,2013-07-15 06:17:00,
2013-07-15 02:32:00,63.0,62.0,30.07,NE,47,0.0,0.0,96,0.00,,,0.00,weatherlink.com 1.10,2013-07-15 06:32:00,
2013-07-15 02:47:00,63.2,62.0,30.07,NE,47,0.0,0.0,97,0.00,,,0.00,weatherlink.com 1.10,2013-07-15 06:47:00,
2013-07-15 03:02:00,63.0,62.0,30.07,NE,47,0.0,0.0,97,0.00,,,0.00,weatherlink.com 1.10,2013-07-15 07:02:00,
2013-07-15 03:17:00,63.0,62.0,30.08,NE,47,0.0,0.0,97,0.00,,,0.00,weatherlink.com 1.10,2013-07-15 07:17:00,
2013-07-15 03:32:00,62.7,62.0,30.08,NE,47,0.0,0.0,97,0.00,,,0.00,weatherlink.com 1.10,2013-07-15 07:32:00,
2013-07-15 03:47:00,62.4,62.0,30.07,NE,47,0.0,0.0,97,0.00,,,0.00,weatherlink.com 1.10,2013-07-15 07:47:00,
2013-07-15 04:02:00,62.3,62.0,30.08,NE,47,0.0,0.0,97,0.00,,,0.00,weatherlink.com 1.10,2013-07-15 08:02:00,
2013-07-15 04:17:00,62.1,61.0,30.08,NE,47,0.0,0.0,97,0.00,,,0.00,weatherlink.com 1.10,2013-07-15 08:17:00,
2013-07-15 04:32:00,61.8,61.0,30.07,NE,47,0.0,0.0,97,0.00,,,0.00,weatherlink.com 1.10,2013-07-15 08:32:00,
2013-07-15 04:47:00,61.8,61.0,30.08,NE,47,0.0,0.0,98,0.00,,,0.00,weatherlink.com 1.10,2013-07-15 08:47:00,
2013-07-15 05:02:00,61.7,61.0,30.07,NE,47,0.0,0.0,98,0.00,,,0.00,weatherlink.com 1.10,2013-07-15 09:02:00,
2013-07-15 05:17:00,61.8,61.0,30.07,NE,47,0.0,0.0,98,0.00,,,0.00,weatherlink.com 1.10,2013-07-15 09:17:00,
2013-07-15 05:32:00,62.2,62.0,30.07,NE,47,0.0,0.0,98,0.00,,,0.00,weatherlink.com 1.10,2013-07-15 09:32:00,
2013-07-15 05:47:00,62.6,62.0,30.07,NE,47,0.0,0.0,98,0.00,,,0.00,weatherlink.com 1.10,2013-07-15 09:47:00,
2013-07-15 06:02:00,63.2,63.0,30.07,NE,47,0.0,0.0,98,0.00,,,0.00,weatherlink.com 1.10,2013-07-15 10:02:00,
2013-07-15 06:17:00,64.4,64.0,30.07,NE,47,0.0,0.0,98,0.00,,,0.00,weatherlink.com 1.10,2013-07-15 10:17:00,
2013-07-15 06:32:00,66.8,66.0,30.08,NE,47,0.0,0.0,98,0.00,,,0.00,weatherlink.com 1.10,2013-07-15 10:32:00,
2013-07-15 06:47:00,68.1,67.0,30.08,NE,47,0.0,0.0,96,0.00,,,0.00,weatherlink.com 1.10,2013-07-15 10:47:00,
2013-07-15 07:02:00,67.7,66.0,30.08,NE,47,0.0,0.0,95,0.00,,,0.00,weatherlink.com 1.10,2013-07-15 11:02:00,
2013-07-15 07:17:00,67.8,66.0,30.08,NE,47,0.0,0.0,93,0.00,,,0.00,weatherlink.com 1.10,2013-07-15 11:17:00,
2013-07-15 07:32:00,68.4,66.0,30.08,NE,47,0.0,0.0,92,0.00,,,0.00,weatherlink.com 1.10,2013-07-15 11:32:00,
2013-07-15 07:47:00,69.9,68.0,30.08,NE,44,3.0,4.0,92,0.00,,,0.00,weatherlink.com 1.10,2013-07-15 11:47:00,
2013-07-15 08:03:00,72.3,70.0,30.07,NE,44,1.0,3.0,91,0.00,,,0.00,weatherlink.com 1.10,2013-07-15 12:03:00,
2013-07-15 08:18:00,74.6,71.0,30.07,NE,44,1.0,3.0,87,0.00,,,0.00,weatherlink.com 1.10,2013-07-15 12:18:00,
2013-07-15 08:33:00,76.8,71.0,30.07,NE,44,0.0,2.0,83,0.00,,,0.00,weatherlink.com 1.10,2013-07-15 12:33:00,
2013-07-15 08:48:00,78.7,71.0,30.07,NE,46,2.0,4.0,78,0.00,,,0.00,weatherlink.com 1.10,2013-07-15 12:48:00,
2013-07-15 09:03:00,78.4,72.0,30.07,NNE,30,1.0,3.0,81,0.00,,,0.00,weatherlink.com 1.10,2013-07-15 13:03:00,
2013-07-15 09:18:00,79.2,71.0,30.06,NNW,343,3.0,4.0,76,0.00,,,0.00,weatherlink.com 1.10,2013-07-15 13:18:00,
2013-07-15 09:33:00,81.1,71.0,30.06,WNW,293,1.0,4.0,72,0.00,,,0.00,weatherlink.com 1.10,2013-07-15 13:33:00,
2013-07-15 09:48:00,82.7,72.0,30.06,NW,325,3.0,8.0,69,0.00,,,0.00,weatherlink.com 1.10,2013-07-15 13:48:00,
2013-07-15 10:03:00,83.7,71.0,30.05,West,279,0.0,5.0,65,0.00,,,0.00,weatherlink.com 1.10,2013-07-15 14:03:00,
2013-07-15 10:18:00,83.1,71.0,30.05,NW,324,1.0,8.0,68,0.00,,,0.00,weatherlink.com 1.10,2013-07-15 14:18:00,
2013-07-15 10:33:00,81.3,72.0,30.05,North,5,4.0,5.0,73,0.00,,,0.00,weatherlink.com 1.10,2013-07-15 14:33:00,
2013-07-15 10:48:00,81.8,71.0,30.04,NE,38,2.0,4.0,69,0.00,,,0.00,weatherlink.com 1.10,2013-07-15 14:48:00,
2013-07-15 11:03:00,82.5,73.0,30.04,NE,42,0.0,4.0,73,0.00,,,0.00,weatherlink.com 1.10,2013-07-15 15:03:00,
2013-07-15 11:18:00,83.5,71.0,30.04,NE,36,3.0,5.0,66,0.00,,,0.00,weatherlink.com 1.10,2013-07-15 15:18:00,
2013-07-15 11:33:00,84.8,71.0,30.03,NE,39,3.0,6.0,63,0.00,,,0.00,weatherlink.com 1.10,2013-07-15 15:33:00,
2013-07-15 11:48:00,85.0,71.0,30.03,East,95,1.0,5.0,63,0.00,,,0.00,weatherlink.com 1.10,2013-07-15 15:48:00,
2013-07-15 12:03:00,86.5,70.0,30.03,WNW,286,2.0,5.0,58,0.00,,,0.00,weatherlink.com 1.10,2013-07-15 16:03:00,
2013-07-15 12:34:00,88.6,68.0,30.02,SSW,198,1.0,6.0,50,0.00,,,0.00,weatherlink.com 1.10,2013-07-15 16:34:00,
2013-07-15 13:19:00,89.3,68.0,30.01,NNW,335,5.0,6.0,49,0.00,,,0.00,weatherlink.com 1.10,2013-07-15 17:19:00,
2013-07-15 13:34:00,89.5,65.0,30.00,SSE,158,0.0,7.0,44,0.00,,,0.00,weatherlink.com 1.10,2013-07-15 17:34:00,
2013-07-15 13:49:00,89.5,65.0,30.00,North,355,5.0,7.0,45,0.00,,,0.00,weatherlink.com 1.10,2013-07-15 17:49:00,
2013-07-15 14:04:00,89.9,64.0,29.99,NNW,329,1.0,7.0,42,0.00,,,0.00,weatherlink.com 1.10,2013-07-15 18:04:00,
2013-07-15 14:19:00,90.0,63.0,29.99,NW,322,0.0,8.0,40,0.00,,,0.00,weatherlink.com 1.10,2013-07-15 18:19:00,
2013-07-15 14:49:00,90.7,67.0,29.99,WSW,244,1.0,8.0,46,0.00,,,0.00,weatherlink.com 1.10,2013-07-15 18:49:00,
2013-07-15 15:04:00,90.2,66.0,29.98,North,355,6.0,8.0,45,0.00,,,0.00,weatherlink.com 1.10,2013-07-15 19:04:00,
2013-07-15 15:19:00,89.8,68.0,29.98,NW,304,0.0,6.0,48,0.00,,,0.00,weatherlink.com 1.10,2013-07-15 19:19:00,
2013-07-15 15:34:00,90.6,67.0,29.98,ESE,106,2.0,6.0,46,0.00,,,0.00,weatherlink.com 1.10,2013-07-15 19:34:00,
2013-07-15 15:49:00,90.8,67.0,29.97,West,263,1.0,7.0,45,0.00,,,0.00,weatherlink.com 1.10,2013-07-15 19:49:00,
2013-07-15 16:19:00,91.1,68.0,29.97,SSE,151,0.0,2.0,47,0.00,,,0.00,weatherlink.com 1.10,2013-07-15 20:19:00,
2013-07-15 17:04:00,90.2,68.0,29.96,WNW,286,1.0,6.0,48,0.00,,,0.00,weatherlink.com 1.10,2013-07-15 21:04:00,
2013-07-15 17:19:00,89.3,70.0,29.96,SW,236,1.0,5.0,54,0.00,,,0.00,weatherlink.com 1.10,2013-07-15 21:19:00,
2013-07-15 17:34:00,88.1,69.0,29.95,SSW,201,0.0,3.0,54,0.00,,,0.00,weatherlink.com 1.10,2013-07-15 21:34:00,
2013-07-15 17:49:00,86.4,70.0,29.95,South,181,0.0,6.0,59,0.00,,,0.00,weatherlink.com 1.10,2013-07-15 21:49:00,
2013-07-15 18:04:00,85.4,69.0,29.95,East,80,1.0,4.0,59,0.00,,,0.00,weatherlink.com 1.10,2013-07-15 22:04:00,
2013-07-15 18:19:00,84.8,69.0,29.95,SSW,206,0.0,7.0,60,0.00,,,0.00,weatherlink.com 1.10,2013-07-15 22:19:00,
2013-07-15 18:34:00,84.0,70.0,29.95,South,189,0.0,3.0,62,0.00,,,0.00,weatherlink.com 1.10,2013-07-15 22:34:00,
2013-07-15 19:04:00,82.1,70.0,29.96,South,180,2.0,5.0,66,0.00,,,0.00,weatherlink.com 1.10,2013-07-15 23:04:00,
2013-07-15 19:34:00,80.0,69.0,29.96,SSW,194,3.0,5.0,70,0.00,,,0.00,weatherlink.com 1.10,2013-07-15 23:34:00,
2013-07-15 19:49:00,79.2,69.0,29.96,SSW,202,2.0,4.0,72,0.00,,,0.00,weatherlink.com 1.10,2013-07-15 23:49:00,
2013-07-15 20:19:00,77.5,69.0,29.97,NNE,18,0.0,3.0,76,0.00,,,0.00,weatherlink.com 1.10,2013-07-16 00:19:00,
2013-07-15 20:34:00,75.9,69.0,29.97,South,190,0.0,3.0,79,0.00,,,0.00,weatherlink.com 1.10,2013-07-16 00:34:00,
2013-07-15 20:49:00,74.6,69.0,29.98,South,190,0.0,0.0,82,0.00,,,0.00,weatherlink.com 1.10,2013-07-16 00:49:00,
2013-07-15 21:04:00,73.8,68.0,29.98,South,190,0.0,0.0,83,0.00,,,0.00,weatherlink.com 1.10,2013-07-16 01:04:00,
2013-07-15 21:34:00,72.7,68.0,29.99,South,190,0.0,0.0,86,0.00,,,0.00,weatherlink.com 1.10,2013-07-16 01:34:00,
2013-07-15 21:49:00,72.4,68.0,29.99,South,190,0.0,0.0,87,0.00,,,0.00,weatherlink.com 1.10,2013-07-16 01:49:00,
2013-07-15 22:04:00,72.2,68.0,29.99,South,190,0.0,0.0,87,0.00,,,0.00,weatherlink.com 1.10,2013-07-16 02:04:00,
2013-07-15 22:49:00,71.1,68.0,29.99,South,190,0.0,0.0,90,0.00,,,0.00,weatherlink.com 1.10,2013-07-16 02:49:00,
2013-07-15 23:04:00,70.5,68.0,29.99,South,190,0.0,0.0,91,0.00,,,0.00,weatherlink.com 1.10,2013-07-16 03:04:00,
2013-07-15 23:19:00,70.1,68.0,29.99,South,190,0.0,0.0,92,0.00,,,0.00,weatherlink.com 1.10,2013-07-16 03:19:00,
2013-07-15 23:50:00,69.5,68.0,29.99,South,190,2.0,3.0,93,0.00,,,0.00,weatherlink.com 1.10,2013-07-16 03:50:00,